TimeCST,TemperatureF,Dew PointF,Humidity,Sea Level PressureIn,VisibilityMPH,Wind Direction,Wind SpeedMPH,Gust SpeedMPH,PrecipitationIn,Events,Conditions,WindDirDegrees,DateUTC
12:52 AM,25.0,18.0,75,30.42,10.0,SSE,4.6,-,N/A,,Clear,150,2012-11-13 06:52:00
1:52 AM,25.0,18.0,75,30.43,10.0,SSE,5.8,-,N/A,,Clear,150,2012-11-13 07:52:00
2:52 AM,24.1,18.0,77,30.42,10.0,SSE,6.9,-,N/A,,Clear,150,2012-11-13 08:52:00
3:52 AM,25.0,18.0,75,30.41,10.0,SSE,4.6,-,N/A,,Clear,160,2012-11-13 09:52:00
4:52 AM,25.0,19.0,78,30.41,10.0,SSE,5.8,-,N/A,,Clear,160,2012-11-13 10:52:00
5:52 AM,25.0,18.0,75,30.41,10.0,SSE,6.9,-,N/A,,Clear,160,2012-11-13 11:52:00
6:52 AM,24.1,19.0,81,30.42,10.0,SE,9.2,-,N/A,,Clear,140,2012-11-13 12:52:00
7:52 AM,27.0,21.0,78,30.41,10.0,SSE,8.1,-,N/A,,Scattered Clouds,160,2012-11-13 13:52:00
8:52 AM,30.9,23.0,72,30.40,10.0,SSE,9.2,-,N/A,,Scattered Clouds,160,2012-11-13 14:52:00
9:52 AM,36.0,23.0,59,30.39,10.0,SSE,9.2,-,N/A,,Scattered Clouds,150,2012-11-13 15:52:00
10:52 AM,41.0,23.0,49,30.38,10.0,SSE,9.2,-,N/A,,Scattered Clouds,150,2012-11-13 16:52:00
11:52 AM,46.9,23.0,39,30.35,10.0,South,9.2,-,N/A,,Scattered Clouds,180,2012-11-13 17:52:00
12:52 PM,51.1,21.9,32,30.32,10.0,SSE,13.8,-,N/A,,Scattered Clouds,160,2012-11-13 18:52:00
1:52 PM,51.1,21.0,31,30.30,10.0,South,11.5,-,N/A,,Scattered Clouds,170,2012-11-13 19:52:00
2:52 PM,53.1,23.0,31,30.28,10.0,South,10.4,-,N/A,,Mostly Cloudy,170,2012-11-13 20:52:00
3:52 PM,51.1,27.0,39,30.29,10.0,SSE,11.5,-,N/A,,Overcast,160,2012-11-13 21:52:00
4:52 PM,50.0,28.0,43,30.28,10.0,South,9.2,-,N/A,,Overcast,170,2012-11-13 22:52:00
5:52 PM,48.0,30.9,52,30.28,10.0,SSE,9.2,-,N/A,,Overcast,150,2012-11-13 23:52:00
6:52 PM,46.0,32.0,58,30.29,10.0,SSE,8.1,-,N/A,,Overcast,160,2012-11-14 00:52:00
7:52 PM,46.0,30.9,56,30.30,10.0,SSE,9.2,-,N/A,,Overcast,160,2012-11-14 01:52:00
8:52 PM,44.1,30.9,60,30.30,10.0,SSE,10.4,-,N/A,,Overcast,150,2012-11-14 02:52:00
9:52 PM,42.1,30.9,65,30.32,10.0,SSE,10.4,-,N/A,,Overcast,160,2012-11-14 03:52:00
10:52 PM,41.0,30.9,67,30.32,10.0,SSE,9.2,-,N/A,,Overcast,150,2012-11-14 04:52:00
11:52 PM,42.1,30.9,65,30.33,10.0,SE,5.8,-,N/A,,Overcast,140,2012-11-14 05:52:00